Weather History for Homer, AK

Change the Weather History Date:

Sunday, August 17, 2014

  Actual Average Record
Temperature  
Mean Temperature 58 °F -  
Max Temperature 63 °F 59 °F 68 °F (1963)
Min Temperature 53 °F 46 °F 35 °F (1955)
Degree Days  
Heating Degree Days 7    
Growing Degree Days 8 (Base 50)    
Moisture  
Dew Point 50 °F    
Average Humidity 76    
Maximum Humidity 84    
Minimum Humidity 65    
Precipitation  
Precipitation 0.02 in - - ()
Sea Level Pressure  
Sea Level Pressure 29.65 in    
Wind  
Wind Speed 3 mph (WSW)    
Max Wind Speed 15 mph    
Max Gust Speed -    
Visibility 10 miles    
Events Fog , Rain    
Averages and records for this station are not official NWS values.
T = Trace of Precipitation, MM = Missing Value Source: NWS Daily Summary

Daily Weather History Graph

Daily Weather History Graph

Search for Another Location

Airport:

Trip Planner

Search our weather history database for the weather conditions in past years. The results will help you decide how hot, cold, wet, or windy it might be!

Date:

Astronomy

Aug. 17, 2014 Rise Set
Actual Time 6:27 AM AKDT 9:50 PM AKDT
Civil Twilight 5:37 AM AKDT 10:40 PM AKDT
Nautical Twilight 4:26 AM AKDT 11:49 PM AKDT
Astronomical Twilight 2:42 AM AKDT 1:37 AM AKDT
Moon No Moon Rise 4:24 PM AKDT (8/17)
Length of Visible Light 17h 02m
Length of Day
15h 23m
Waning Gibbous, 47% of the Moon is Illuminated
Aug 17
Waning Gibbous
Aug 25
New
Sep 2
First Quarter
Sep 8
Full
Sep 15
Last Quarter

Hourly Weather History & Observations

Time (AKDT) Temp. Dew Point Humidity Pressure Visibility Wind Dir Wind Speed Gust Speed Precip Events Conditions
12:53 AM 59.0 °F 48.9 °F 69% 29.56 in 10.0 mi Calm Calm - N/A   Overcast
1:53 AM 57.9 °F 48.9 °F 72% 29.56 in 10.0 mi Calm Calm - N/A   Overcast
2:53 AM 57.0 °F 48.9 °F 74% 29.57 in 6.0 mi Calm Calm - 0.00 in Rain Light Rain
3:53 AM 55.9 °F 50.0 °F 80% 29.57 in 10.0 mi NNE 3.5 mph - 0.02 in   Overcast
4:53 AM 53.1 °F 48.0 °F 83% 29.57 in 10.0 mi Calm Calm - N/A   Partly Cloudy
5:53 AM 53.1 °F 48.0 °F 83% 29.57 in 10.0 mi Calm Calm - N/A   Mostly Cloudy
6:53 AM 53.1 °F 46.9 °F 80% 29.58 in 10.0 mi West 3.5 mph - N/A Fog Patches of Fog
7:53 AM 54.0 °F 48.9 °F 83% 29.59 in 10.0 mi Calm Calm - N/A   Mostly Cloudy
8:53 AM 55.0 °F 50.0 °F 83% 29.60 in 10.0 mi SSW 4.6 mph - N/A   Mostly Cloudy
9:28 AM 57.9 °F 53.1 °F 84% 29.60 in 10.0 mi Variable 3.5 mph - N/A   Mostly Cloudy
9:53 AM 57.9 °F 52.0 °F 81% 29.61 in 10.0 mi South 4.6 mph - N/A   Mostly Cloudy
10:53 AM 57.9 °F 51.1 °F 78% 29.62 in 10.0 mi Calm Calm - N/A   Mostly Cloudy
11:53 AM 61.0 °F 52.0 °F 72% 29.63 in 10.0 mi SSW 4.6 mph - N/A   Mostly Cloudy
12:53 PM 59.0 °F 52.0 °F 78% 29.64 in 10.0 mi SSW 6.9 mph - N/A   Mostly Cloudy
2:53 PM 63.0 °F 51.1 °F 65% 29.67 in 10.0 mi WSW 10.4 mph - N/A   Clear
3:53 PM 62.1 °F 52.0 °F 70% 29.68 in 10.0 mi WSW 13.8 mph - N/A   Clear
4:53 PM 59.0 °F 50.0 °F 72% 29.70 in 10.0 mi WSW 15.0 mph - N/A   Partly Cloudy
5:07 PM 59.0 °F 51.1 °F 75% 29.70 in 4.0 mi West 12.7 mph - N/A   Haze
5:53 PM 57.9 °F 51.1 °F 78% 29.71 in 6.0 mi West 10.4 mph - N/A   Mostly Cloudy
6:18 PM 60.1 °F 51.1 °F 72% 29.71 in 10.0 mi West 10.4 mph - N/A   Scattered Clouds
6:53 PM 59.0 °F 50.0 °F 72% 29.73 in 10.0 mi West 10.4 mph - N/A   Scattered Clouds
7:53 PM 60.1 °F 50.0 °F 69% 29.73 in 10.0 mi West 10.4 mph - N/A   Clear
8:53 PM 59.0 °F 48.9 °F 69% 29.74 in 10.0 mi SSW 3.5 mph - N/A   Clear
9:53 PM 59.0 °F 50.0 °F 72% 29.76 in 10.0 mi Calm Calm - N/A   Overcast
10:53 PM 55.9 °F 48.9 °F 77% 29.78 in 10.0 mi Calm Calm - N/A   Overcast
11:53 PM 57.0 °F 48.9 °F 74% 29.79 in 10.0 mi Calm Calm - N/A   Overcast